Weather History for Detroit Lakes, MN

Change the Weather History Date:

Saturday, January 12, 2013

  Actual Average Record
Temperature  
Mean Temperature 8 °F -  
Max Temperature 19 °F 16 °F 43 °F (1987)
Min Temperature -4 °F -4 °F -39 °F (1977)
Degree Days  
Heating Degree Days 58    
Moisture  
Dew Point 0 °F    
Average Humidity 86    
Maximum Humidity 100    
Minimum Humidity 78    
Precipitation  
Precipitation 0.00 in - - ()
Sea Level Pressure  
Sea Level Pressure 29.81 in    
Wind  
Wind Speed 16 mph (NW)    
Max Wind Speed 22 mph    
Max Gust Speed 30 mph    
Visibility 5 miles    
Events Snow    
Averages and records for this station are not official NWS values.
T = Trace of Precipitation, MM = Missing Value Source: NWS Daily Summary

Daily Weather History Graph

Daily Weather History Graph

Search for Another Location

Airport:

Trip Planner

Search our weather history database for the weather conditions in past years. The results will help you decide how hot, cold, wet, or windy it might be!

Date:

Astronomy

Jan. 12, 2013 Rise Set
Actual Time 8:05 AM CST 4:58 PM CST
Civil Twilight 7:31 AM CST 5:32 PM CST
Nautical Twilight 6:53 AM CST 6:10 PM CST
Astronomical Twilight 6:17 AM CST 6:47 PM CST
Moon 8:18 AM CST (1/12) 6:36 PM CST (1/12)
Length of Visible Light 10h 01m
Length of Day
8h 52m
New Moon, 1% of the Moon is Illuminated
Jan 12
New Moon
Jan 18
First Quarter
Jan 26
Full
Feb 3
Last Quarter
Feb 10
New

Hourly Weather History & Observations

Time (CST) Temp. Windchill Dew Point Humidity Pressure Visibility Wind Dir Wind Speed Gust Speed Precip Events Conditions
12:13 AM 19.4 °F 5.0 °F 19.4 °F 100% 29.38 in 10.0 mi NNW 16.1 mph 23.0 mph N/A   Overcast
12:33 AM 19.4 °F 5.0 °F 17.6 °F 93% 29.38 in 7.0 mi NNW 16.1 mph 19.6 mph N/A   Overcast
12:53 AM 17.6 °F 3.2 °F 15.8 °F 93% 29.40 in 7.0 mi NNW 15.0 mph - N/A Snow Light Snow
1:13 AM 17.6 °F 3.2 °F 15.8 °F 93% 29.41 in 7.0 mi NNW 15.0 mph 23.0 mph N/A   Overcast
1:33 AM 17.6 °F 2.2 °F 14.0 °F 86% 29.42 in 2.5 mi NNW 17.3 mph 21.9 mph N/A Snow Light Snow
2:13 AM 15.8 °F -0.6 °F 14.0 °F 93% 29.45 in 1.8 mi NW 18.4 mph 24.2 mph N/A Snow Light Snow
2:33 AM 14.0 °F -0.8 °F 12.2 °F 93% 29.47 in 2.0 mi NW 13.8 mph 19.6 mph N/A Snow Light Snow
2:53 AM 14.0 °F -0.8 °F 12.2 °F 93% 29.48 in 2.5 mi NW 13.8 mph - N/A Snow Light Snow
3:33 AM 12.2 °F -4.8 °F 10.4 °F 92% 29.51 in 2.0 mi NW 17.3 mph 21.9 mph N/A Snow Light Snow
3:53 AM 10.4 °F -8.6 °F 8.6 °F 92% 29.52 in 1.8 mi NW 20.7 mph - N/A Snow Light Snow
4:13 AM 10.4 °F -8.6 °F 8.6 °F 92% 29.52 in 2.0 mi NW 20.7 mph 26.5 mph N/A Snow Light Snow
4:33 AM 10.4 °F -8.2 °F 8.6 °F 92% 29.54 in - NW 19.6 mph - N/A   Overcast
4:53 AM 10.4 °F -9.1 °F 6.8 °F 85% 29.55 in - NW 21.9 mph - N/A   Overcast
5:13 AM 8.6 °F -11.0 °F 6.8 °F 92% 29.57 in - NW 20.7 mph 26.5 mph N/A   Overcast
5:33 AM 8.6 °F -8.9 °F 5.0 °F 85% 29.60 in - NW 16.1 mph - N/A   Overcast
5:53 AM 8.6 °F -11.0 °F 5.0 °F 85% 29.61 in - NW 20.7 mph 29.9 mph N/A   Overcast
6:13 AM 8.6 °F -11.4 °F 5.0 °F 85% 29.63 in - NW 21.9 mph 26.5 mph N/A   Overcast
6:32 AM 6.8 °F -13.4 °F 3.2 °F 85% 29.64 in - NW 20.7 mph 26.5 mph N/A   Overcast
6:53 AM 5.0 °F -15.7 °F 3.2 °F 92% 29.66 in - NW 20.7 mph 28.8 mph N/A   Overcast
7:13 AM 5.0 °F -14.7 °F 1.4 °F 85% 29.68 in - NW 18.4 mph 28.8 mph N/A   Overcast
7:32 AM 5.0 °F -14.2 °F 1.4 °F 85% 29.70 in - NW 17.3 mph 27.6 mph N/A   Overcast
7:53 AM 3.2 °F -18.6 °F 1.4 °F 92% 29.71 in - NW 21.9 mph 26.5 mph N/A   Overcast
8:13 AM 3.2 °F -15.3 °F 1.4 °F 92% 29.73 in - NW 15.0 mph - N/A   Overcast
8:32 AM 3.2 °F -16.5 °F -0.4 °F 85% 29.74 in - NW 17.3 mph 23.0 mph N/A   Overcast
8:53 AM 3.2 °F -15.3 °F -0.4 °F 85% 29.75 in - NNW 15.0 mph 24.2 mph N/A   Overcast
9:13 AM 3.2 °F -16.5 °F -0.4 °F 85% 29.76 in - NNW 17.3 mph 23.0 mph N/A   Overcast
9:32 AM 3.2 °F -17.1 °F -0.4 °F 85% 29.77 in - NW 18.4 mph 24.2 mph N/A   Overcast
9:53 AM 3.2 °F -15.9 °F -0.4 °F 85% 29.79 in - NW 16.1 mph - N/A   Overcast
10:13 AM 3.2 °F -14.6 °F -0.4 °F 85% 29.81 in - NW 13.8 mph 23.0 mph N/A   Overcast
10:32 AM 3.2 °F -13.9 °F -0.4 °F 85% 29.83 in - NW 12.7 mph - N/A   Overcast
10:53 AM 3.2 °F -14.6 °F -0.4 °F 85% 29.84 in - NW 13.8 mph - N/A   Overcast
11:12 AM 3.2 °F -15.9 °F -0.4 °F 85% 29.85 in - NW 16.1 mph - N/A   Overcast
11:53 AM 3.2 °F -16.5 °F -2.2 °F 78% 29.85 in - NNW 17.3 mph 21.9 mph N/A   Overcast
12:12 PM 3.2 °F -15.3 °F -2.2 °F 78% 29.86 in - NW 15.0 mph - N/A   Overcast
12:33 PM 3.2 °F -15.9 °F -2.2 °F 78% 29.88 in - NW 16.1 mph - N/A   Overcast
12:53 PM 1.4 °F -18.2 °F -2.2 °F 85% 29.89 in - NW 16.1 mph - N/A   Overcast
1:12 PM 1.4 °F -18.2 °F -2.2 °F 85% 29.90 in - WNW 16.1 mph - N/A   Overcast
1:33 PM 1.4 °F -17.6 °F -2.2 °F 85% 29.90 in - NW 15.0 mph - N/A   Overcast
1:53 PM 1.4 °F -16.9 °F -4.0 °F 78% 29.91 in - NW 13.8 mph - N/A   Overcast
2:12 PM 1.4 °F -16.1 °F -2.2 °F 85% 29.93 in 4.0 mi NW 12.7 mph - N/A   Mostly Cloudy
2:33 PM 1.4 °F -18.8 °F -2.2 °F 85% 29.94 in 3.0 mi NW 17.3 mph - N/A   Overcast
2:53 PM 1.4 °F -16.9 °F -4.0 °F 78% 29.95 in 5.0 mi NW 13.8 mph 18.4 mph N/A   Haze
3:12 PM 1.4 °F -18.2 °F -4.0 °F 78% 29.95 in - NW 16.1 mph - N/A   Mostly Cloudy
3:33 PM 1.4 °F -17.6 °F -4.0 °F 78% 29.96 in 7.0 mi NW 15.0 mph 20.7 mph N/A   Scattered Clouds
3:53 PM 1.4 °F -17.6 °F -4.0 °F 78% 29.96 in 7.0 mi NW 15.0 mph - N/A   Scattered Clouds
4:13 PM 1.4 °F -18.2 °F -4.0 °F 78% 29.98 in - NW 16.1 mph - N/A   Unknown
4:33 PM -0.4 °F -20.5 °F -4.0 °F 85% 29.98 in - NNW 16.1 mph 19.6 mph N/A   Overcast
4:53 PM -0.4 °F -19.2 °F -4.0 °F 85% 29.98 in - NW 13.8 mph 20.7 mph N/A   Mostly Cloudy
5:13 PM -0.4 °F -20.5 °F -5.8 °F 78% 29.99 in - NNW 16.1 mph 20.7 mph N/A   Unknown
5:33 PM -0.4 °F -21.7 °F -5.8 °F 78% 29.98 in - NNW 18.4 mph 21.9 mph N/A   Unknown
5:53 PM -0.4 °F -22.3 °F -5.8 °F 78% 29.99 in - NNW 19.6 mph 23.0 mph N/A   Overcast
6:13 PM -2.2 °F -22.9 °F -5.8 °F 85% 30.00 in 7.0 mi NNW 16.1 mph 23.0 mph N/A   Mostly Cloudy
6:32 PM -2.2 °F -24.7 °F -5.8 °F 85% 30.00 in 5.0 mi NNW 19.6 mph - N/A   Mostly Cloudy
6:53 PM -4.0 °F -26.4 °F -7.6 °F 85% 30.00 in 4.0 mi NNW 18.4 mph 25.3 mph N/A   Mostly Cloudy
7:13 PM -4.0 °F -25.2 °F -7.6 °F 85% 30.01 in 2.5 mi NNW 16.1 mph - N/A   Overcast
7:32 PM -4.0 °F -26.4 °F -7.6 °F 85% 30.02 in 7.0 mi NNW 18.4 mph 24.2 mph N/A   Mostly Cloudy
7:53 PM -4.0 °F -23.7 °F -7.6 °F 85% 30.03 in - NNW 13.8 mph 24.2 mph N/A   Unknown
8:13 PM -2.2 °F -20.7 °F -5.8 °F 85% 30.04 in - NNW 12.7 mph 17.3 mph N/A   Unknown
8:32 PM -2.2 °F -23.5 °F -5.8 °F 85% 30.03 in - NNW 17.3 mph 20.7 mph N/A   Unknown
8:53 PM -4.0 °F -25.2 °F -7.6 °F 85% 30.05 in - NNW 16.1 mph - N/A   Unknown
9:13 PM -2.2 °F -20.7 °F -5.8 °F 85% 30.07 in - NNW 12.7 mph - N/A   Unknown
9:32 PM -4.0 °F -23.7 °F -5.8 °F 92% 30.07 in - NNW 13.8 mph - N/A   Unknown
9:53 PM -4.0 °F -23.0 °F -5.8 °F 92% 30.07 in - NNW 12.7 mph - N/A   Overcast
10:32 PM -4.0 °F -23.0 °F -7.6 °F 85% 30.08 in - NNW 12.7 mph - N/A   Unknown
10:53 PM -4.0 °F -22.1 °F -7.6 °F 85% 30.09 in - NNW 11.5 mph - N/A   Unknown
11:13 PM -4.0 °F -20.2 °F -7.6 °F 85% 30.09 in - NNW 9.2 mph - N/A   Unknown
11:32 PM -4.0 °F -19.0 °F -7.6 °F 85% 30.09 in - North 8.1 mph - N/A   Unknown
11:53 PM -4.0 °F -21.2 °F -7.6 °F 85% 30.08 in - NNW 10.4 mph - N/A   Unknown